Temperature
4 5 4 4 4 4 4 5 6 7 7 8 8 7 6 5 4 3 3 3 2 2 2 2 2 2 1 1 1 1 1 1 1 1 1 1 1 1 1 1 1 1 1 1
3 4 3 3 4 4 4 5 5 5 6 7 6 5 5 4 4 3 3 2 2 2 1 1 1 1 1 1 1 1 1 1 1 1 1 1 1 1 1 1 1 1 1 0
5 3 3 5 5 4 4 4 5 5 6 6 5 5 4 4 3 3 2 2 2 2 1 1 1 1 1 1 1 1 0 0 0 1 1 0 0 0 0 0 0 0 0 0
3 3 4 7 5 4 4 4 4 4 5 5 4 4 3 3 3 2 2 2 2 2 1 1 1 1 1 1 0 0 0 0 0 0 0 0 0 -0 -0 -0 -0 -0 -0 -0
3 4 5 6 4 3 3 4 4 4 4 4 3 2 3 3 3 2 2 2 2 2 1 1 1 1 1 0 0 0 -0 -0 -0 -0 -0 -0 -0 -0 -0 -1 -1 -1 -1 -1
2 3 5 6 4 2 3 4 4 3 3 3 2 4 5 3 3 2 2 2 1 1 1 1 1 0 0 -0 -0 -0 -0 -0 -0 -0 -0 -0 -0 -1 -1 -1 -1 -1 -1 -1
2 3 5 5 2 2 4 6 4 3 3 2 3 3 3 3 2 2 2 1 1 1 1 0 0 0 -0 -0 -0 -0 -0 -0 -1 -0 -0 -0 -1 -1 -1 -1 -2 -2 -2 -2
2 3 4 3 2 3 5 3 3 2 2 2 2 2 2 2 2 1 1 1 1 0 0 0 0 -0 -0 -0 -0 -1 -1 -1 -1 -1 -1 -1 -1 -1 -2 -2 -2 -2 -2 -2
3 5 4 2 2 3 2 2 2 2 2 2 2 2 2 2 1 1 1 0 0 0 0 0 -0 -0 -0 -0 -1 -1 -1 -1 -1 -1 -1 -1 -1 -2 -2 -2 -2 -3 -3 -3
1 3 3 2 2 2 2 2 2 2 2 2 1 1 1 1 1 1 0 0 0 0 0 0 -0 -0 -0 -1 -1 -1 -1 -1 -1 -1 -1 -1 -2 -2 -2 -3 -3 -3 -3 -3
1 2 2 2 2 2 2 2 2 2 2 1 1 1 1 1 1 0 0 -0 -0 -0 -0 -0 -0 -1 -1 -1 -1 -1 -1 -1 -1 -1 -1 -2 -2 -2 -3 -3 -3 -3 -3 -3
3 3 2 3 2 2 2 2 1 1 1 1 1 1 1 1 1 0 -0 -0 -0 -0 -0 -1 -1 -1 -1 -1 -1 -1 -1 -1 -2 -2 -2 -2 -2 -3 -3 -3 -3 -3 -3 -4
2 2 2 2 2 2 1 1 1 1 1 1 1 0 0 0 0 -0 -0 -0 -0 -0 -1 -1 -1 -1 -1 -1 -1 -1 -1 -2 -2 -2 -2 -3 -3 -3 -3 -3 -3 -4 -4 -4
1 1 0 1 1 1 1 1 1 1 1 1 0 0 -0 -0 -0 -0 -0 -1 -1 -1 -1 -1 -1 -1 -1 -1 -1 -2 -2 -2 -2 -2 -3 -3 -3 -3 -3 -4 -4 -4 -4 -4
1 0 0 0 1 1 0 0 0 0 0 0 -0 -0 -0 -0 -0 -1 -1 -1 -1 -1 -1 -1 -1 -1 -1 -2 -2 -2 -2 -2 -2 -3 -3 -3 -3 -4 -4 -4 -4 -4 -4 -4
1 0 -0 -0 -0 0 0 -0 -0 -0 -0 -0 -0 -0 -0 -1 -1 -1 -1 -1 -1 -1 -1 -1 -1 -1 -2 -2 -2 -2 -2 -2 -3 -3 -3 -3 -3 -4 -4 -4 -4 -5 -5 -5
-1 -1 -1 -1 -1 -0 -0 -0 -0 -0 -0 -0 -1 -1 -1 -1 -1 -1 -1 -1 -1 -1 -1 -2 -2 -2 -2 -2 -2 -2 -3 -3 -3 -3 -3 -3 -4 -4 -4 -4 -5 -5 -5 -5
-0 0 -0 -0 -0 -0 -0 -0 -0 -0 -1 -1 -1 -1 -1 -1 -1 -1 -1 -2 -2 -2 -2 -2 -2 -2 -2 -2 -3 -3 -3 -3 -3 -3 -3 -4 -4 -4 -4 -4 -5 -5 -5 -5
-0 -0 -0 -0 -0 -0 -0 -1 -1 -1 -1 -1 -1 -1 -1 -1 -1 -2 -2 -2 -2 -2 -2 -2 -2 -2 -2 -3 -3 -3 -3 -3 -3 -4 -4 -4 -4 -5 -5 -5 -5 -5 -5 -5
-0 -0 -1 -1 -1 -1 -1 -1 -1 -1 -1 -2 -2 -2 -2 -2 -2 -2 -2 -2 -2 -2 -2 -2 -3 -3 -3 -3 -3 -3 -3 -4 -4 -4 -4 -4 -5 -5 -5 -5 -5 -5 -5 -5
-0 -1 -1 -1 -1 -1 -1 -1 -1 -1 -1 -2 -2 -2 -2 -2 -2 -2 -2 -2 -2 -2 -3 -3 -3 -3 -3 -3 -4 -4 -4 -4 -4 -4 -4 -5 -5 -5 -5 -5 -5 -5 -6 -6
-1 -1 -1 -1 -1 -1 -1 -1 -1 -1 -2 -2 -2 -2 -2 -2 -2 -2 -2 -2 -2 -3 -3 -3 -3 -3 -4 -4 -4 -4 -4 -4 -4 -5 -5 -5 -5 -5 -5 -6 -6 -6 -6 -6
-1 -1 -1 -1 -1 -1 -1 -2 -2 -2 -2 -2 -2 -2 -2 -2 -2 -2 -2 -2 -3 -3 -3 -3 -3 -4 -4 -4 -4 -4 -4 -5 -5 -5 -5 -5 -6 -6 -6 -6 -6 -6 -6 -6
-1 -1 -1 -2 -2 -2 -2 -2 -2 -2 -2 -2 -2 -2 -2 -2 -2 -2 -3 -3 -3 -3 -3 -3 -3 -4 -4 -4 -4 -4 -5 -5 -5 -5 -5 -6 -6 -6 -6 -6 -6 -6 -6 -6
-1 -1 -2 -2 -2 -2 -2 -2 -3 -3 -3 -3 -3 -3 -3 -3 -3 -3 -3 -3 -3 -3 -3 -4 -4 -4 -4 -4 -4 -5 -5 -5 -5 -6 -6 -6 -6 -6 -6 -6 -6 -6 -6 -6
-2 -2 -2 -2 -2 -2 -3 -3 -3 -3 -3 -3 -3 -3 -3 -3 -3 -3 -4 -4 -4 -4 -4 -4 -4 -4 -4 -5 -5 -5 -5 -5 -5 -6 -6 -6 -6 -6 -6 -6 -6 -6 -6 -7
-2 -2 -2 -3 -3 -3 -3 -3 -3 -3 -3 -4 -4 -4 -4 -4 -4 -4 -4 -4 -5 -5 -5 -5 -5 -5 -5 -5 -5 -5 -6 -6 -6 -6 -6 -6 -6 -6 -6 -7 -7 -7 -7 -7
Wind_Speed
11 11 9 11 13 13 16 15 13 14 16 17 13 11 9 7 6 5 5 4 4 5 4 3 3 3 3 3 3 3 3 3 4 4 4 4 4 4 4 4 4 4 4 4
7 7 8 11 14 16 17 17 19 20 20 16 11 9 9 8 6 7 7 6 6 6 5 4 4 3 3 3 3 3 4 4 3 3 3 4 4 4 4 3 3 3 4 4
6 5 6 10 11 13 11 12 12 16 14 9 9 8 8 7 6 7 7 7 6 6 5 4 4 4 4 3 3 3 4 4 3 3 4 4 3 3 3 3 3 3 3 3
4 4 7 3 1 6 10 12 13 13 12 9 9 8 8 6 6 7 7 7 6 5 5 4 4 3 3 3 3 3 3 3 4 4 4 4 3 3 3 3 3 3 3 3
3 5 9 6 3 4 6 9 10 13 12 10 7 7 7 6 6 8 7 6 5 5 4 4 4 3 2 3 3 3 4 4 4 4 4 3 3 3 3 3 3 3 3 3
5 5 6 3 1 3 3 6 5 8 9 7 4 5 6 4 5 5 4 4 4 3 3 3 3 2 2 3 3 4 4 4 4 4 4 4 3 3 3 2 2 2 2 2
9 8 8 4 2 5 4 5 2 5 6 5 6 7 5 4 4 4 4 3 3 3 3 3 3 2 3 4 5 5 4 4 4 4 4 4 3 3 3 2 2 2 2 2
7 8 9 4 6 6 6 4 4 5 6 6 6 6 6 5 4 4 4 3 3 3 3 3 3 3 4 5 5 4 4 3 3 4 3 2 3 2 3 2 2 2 1 2
9 9 3 6 7 6 4 6 7 6 7 6 6 6 6 5 5 4 4 4 3 3 3 3 3 3 4 5 4 3 3 3 3 3 3 3 3 3 2 2 2 2 2 2
7 10 9 9 9 8 8 8 8 7 6 6 7 7 6 5 5 4 4 4 3 3 3 4 3 4 4 4 3 3 3 3 2 2 2 2 2 2 3 3 2 2 2 2
9 10 9 9 10 10 8 7 6 6 6 6 6 7 7 6 5 5 4 4 3 4 4 4 4 4 3 3 3 3 3 2 2 2 2 2 2 2 3 3 3 3 3 3
9 8 7 8 6 7 7 7 7 6 7 6 6 7 6 6 5 5 4 4 3 4 4 4 4 4 3 3 3 3 3 2 2 2 1 1 1 1 2 3 3 4 4 3
10 7 8 9 7 6 6 7 6 6 7 7 6 5 6 5 5 4 4 4 4 5 4 4 3 3 3 3 3 3 3 2 2 2 2 2 2 2 2 2 3 3 3 3
10 7 8 8 8 6 6 6 5 5 5 5 5 4 4 4 4 4 5 5 4 4 4 3 3 3 3 2 2 3 3 3 2 2 2 2 2 2 2 2 2 2 2 3
10 10 9 7 7 6 5 4 4 4 4 4 4 4 4 4 5 5 5 3 2 3 3 3 3 3 2 2 2 3 2 2 2 2 2 2 2 2 2 2 2 2 2 2
7 7 8 8 7 6 5 5 5 5 5 5 4 4 5 5 4 4 3 3 3 4 4 3 4 3 2 2 2 2 2 2 2 2 2 2 2 2 2 2 2 2 2 2
6 7 7 7 7 6 6 5 6 6 5 5 5 4 3 3 3 4 4 3 3 4 4 4 4 2 2 2 2 2 2 2 2 1 1 1 1 2 2 2 2 2 2 2
10 9 8 7 7 6 6 5 5 5 5 5 4 3 3 4 4 4 3 2 2 3 4 4 3 2 2 2 2 1 1 1 1 2 1 1 1 1 1 2 2 2 2 2
7 7 7 6 6 6 6 5 5 5 4 4 3 4 4 4 4 3 2 2 2 4 4 2 2 2 2 2 2 2 2 1 1 1 1 2 1 1 1 1 1 2 2 1
4 5 5 5 5 5 5 4 4 4 3 3 3 3 3 4 3 3 3 3 4 4 2 2 2 2 2 2 2 2 2 2 2 2 1 2 2 2 1 1 1 1 1 1
4 4 4 4 3 3 4 4 4 4 3 3 4 4 4 4 3 3 3 3 3 2 2 3 2 2 2 2 3 2 2 2 2 2 2 2 2 2 2 2 2 1 1 1
4 4 4 3 3 3 3 3 3 3 3 3 3 3 3 3 3 3 3 3 3 2 1 2 2 2 2 3 2 2 2 2 2 2 2 2 2 2 2 2 2 2 2 2
3 3 3 3 3 3 2 3 3 3 3 4 4 4 4 3 3 3 3 2 2 2 2 2 2 3 3 2 2 2 3 3 2 2 2 2 2 2 2 2 2 2 2 2
3 3 3 2 2 2 3 3 3 2 3 3 3 3 3 3 2 3 3 3 2 2 2 2 3 3 3 2 2 2 2 2 2 2 2 2 2 2 2 2 2 2 2 2
3 3 3 3 3 3 3 3 2 2 2 2 2 2 3 3 3 2 2 2 2 2 2 2 3 3 3 2 2 2 2 2 2 2 2 2 2 2 2 2 2 2 2 2
3 3 3 4 3 3 3 2 2 2 2 2 2 2 2 1 1 1 1 2 2 2 2 1 2 2 2 2 2 2 2 2 2 2 2 2 2 2 2 2 2 2 2 2
2 2 2 2 2 3 3 3 3 3 3 3 2 2 2 1 1 1 1 1 1 1 1 1 2 2 2 2 2 2 2 2 2 2 2 2 2 2 2 2 2 2 2 2
Wind_Direction
263 272 263 255 249 233 228 236 247 262 268 276 280 281 282 279 276 277 284 286 288 287 280 272 277 292 295 291 285 275 267 270 273 278 281 280 277 274 272 270 267 262 254 249
267 262 263 264 256 241 239 241 247 263 272 276 281 280 277 275 272 273 281 282 285 283 277 269 267 280 291 294 286 279 276 277 280 276 279 279 278 276 273 271 270 264 255 249
265 289 285 264 243 224 226 227 232 248 261 277 278 274 275 274 264 266 277 283 280 277 271 267 266 269 275 279 281 274 276 282 283 271 264 268 269 266 267 266 265 263 258 253
274 291 251 255 159 216 233 243 235 247 264 268 268 280 280 270 261 269 275 277 275 274 273 272 270 271 274 280 278 274 276 280 278 267 258 258 256 259 265 267 265 264 265 263
237 260 273 276 230 207 228 261 237 242 259 269 284 293 283 262 261 265 265 269 271 268 265 264 263 261 262 272 275 274 276 276 272 262 254 251 249 252 258 259 262 267 266 267
223 244 253 267 151 172 200 264 237 233 252 263 263 275 290 292 280 275 276 275 274 268 261 258 260 248 251 262 266 272 277 277 275 265 252 245 245 248 254 253 256 262 264 271
228 241 263 269 168 163 218 282 301 238 243 238 238 260 293 296 287 283 283 280 271 259 252 255 248 240 252 261 265 275 281 282 283 273 257 246 240 242 242 240 241 251 268 283
209 226 250 179 157 202 257 312 285 265 252 246 257 273 277 278 280 283 284 280 274 262 263 261 241 235 251 263 272 280 279 278 280 275 259 242 227 227 229 225 227 240 266 288
208 226 269 181 213 247 278 275 274 265 265 253 262 269 267 267 269 269 271 271 269 263 267 268 251 242 252 268 277 278 273 272 275 274 250 226 217 215 214 215 224 238 244 261
247 256 261 253 254 264 269 270 274 272 263 253 262 263 258 260 266 269 269 265 264 260 261 264 260 255 258 267 272 265 268 272 271 269 256 220 217 213 212 213 219 228 241 251
248 266 277 259 252 260 269 276 277 275 265 255 256 259 253 256 261 262 264 262 254 252 258 262 262 262 267 269 263 260 260 263 264 261 260 232 220 224 225 226 231 232 240 243
241 245 245 268 270 260 258 265 271 273 275 265 255 256 254 256 258 257 256 253 254 257 262 263 261 267 272 265 253 248 247 252 255 256 255 247 240 252 242 245 248 246 248 256
251 264 261 275 279 264 256 268 273 265 263 269 265 254 249 256 254 252 253 254 252 254 258 258 257 267 271 262 245 241 248 250 249 249 250 248 236 240 270 266 238 236 246 255
247 257 267 269 271 273 268 271 274 274 272 268 264 258 250 249 249 250 253 255 254 252 254 251 251 261 265 251 237 241 247 245 239 238 242 243 239 238 240 246 257 269 258 258
246 241 250 268 274 273 267 264 271 278 283 284 271 257 246 242 248 255 259 256 244 247 255 251 249 259 259 239 230 236 241 243 239 239 237 238 237 236 235 240 247 258 268 258
250 247 243 246 255 263 261 255 260 269 273 274 271 263 255 252 256 261 260 241 227 243 251 251 254 257 236 220 222 234 241 245 250 240 235 235 229 229 226 231 241 244 246 254
236 241 236 240 248 258 259 255 252 258 264 263 264 263 256 251 257 261 260 247 241 249 254 253 257 255 226 215 216 228 236 234 235 240 236 234 232 226 223 220 232 247 253 257
238 243 239 236 239 247 259 261 257 259 260 262 261 246 235 236 249 260 268 267 264 270 269 261 254 240 227 220 213 219 225 232 227 230 233 232 240 236 234 233 236 249 265 264
236 235 235 235 236 237 247 254 256 256 259 252 242 240 243 249 255 260 265 260 264 273 278 259 224 213 220 218 203 210 209 209 215 227 233 230 238 243 243 247 253 248 252 261
230 228 230 237 240 235 240 247 249 250 250 239 236 243 252 258 255 248 242 253 261 269 269 245 219 222 225 213 197 207 205 207 211 216 221 224 232 241 245 250 255 264 268 271
223 223 222 229 244 249 248 247 242 245 248 229 225 238 250 262 258 245 244 265 281 275 240 225 222 224 216 199 195 207 208 209 211 212 213 219 224 233 237 241 250 259 268 273
219 216 218 222 230 256 266 256 241 238 238 233 234 238 245 256 257 253 251 262 276 249 231 226 224 216 202 201 203 206 210 212 212 212 213 216 219 226 233 239 245 255 261 265
220 216 214 214 222 244 265 259 243 234 233 233 232 234 238 244 242 243 266 270 266 235 230 231 220 205 204 206 204 204 209 212 213 213 214 215 220 226 232 240 249 254 258 263
209 208 209 211 204 220 248 264 259 249 240 244 243 238 235 241 251 248 261 257 250 234 235 232 212 205 205 206 205 209 211 214 215 214 212 213 216 222 231 240 252 262 264 267
207 206 202 200 215 234 243 250 257 255 245 253 261 257 245 241 244 258 266 261 245 236 244 232 216 207 203 204 206 212 214 213 210 207 211 215 219 224 231 237 246 257 262 264
215 219 223 227 232 235 234 232 240 247 244 251 265 268 263 254 243 252 252 251 238 228 237 229 212 207 205 200 200 205 207 210 214 215 214 216 222 226 234 241 249 253 258 264
219 224 226 236 242 231 226 227 232 239 239 239 256 265 259 248 233 228 229 233 230 224 222 215 206 204 202 195 188 188 194 201 209 215 214 217 222 228 232 236 243 248 253 255
Height
1484 1482 1482 1480 1479 1480 1480 1473 1469 1456 1455 1449 1450 1451 1451 1451 1451 1451 1450 1450 1449 1448 1447 1446 1445 1444 1444 1443 1442 1441 1440 1439 1438 1437 1437 1436 1435 1434 1433 1433 1432 1432 1431 1430
1483 1481 1481 1478 1472 1472 1472 1470 1465 1460 1455 1450 1450 1450 1449 1449 1448 1448 1447 1446 1445 1444 1443 1442 1441 1441 1440 1440 1439 1438 1436 1435 1434 1434 1433 1432 1431 1431 1430 1429 1429 1428 1427 1426
1475 1479 1479 1466 1460 1463 1463 1460 1460 1456 1449 1449 1449 1448 1446 1445 1445 1445 1444 1443 1441 1440 1440 1439 1438 1438 1437 1436 1436 1435 1434 1432 1431 1431 1430 1429 1428 1427 1427 1426 1425 1424 1424 1423
1480 1479 1469 1452 1456 1456 1456 1453 1453 1451 1448 1448 1447 1445 1444 1442 1441 1441 1440 1439 1438 1437 1436 1436 1435 1435 1434 1433 1432 1431 1430 1429 1428 1427 1426 1426 1425 1425 1424 1423 1422 1421 1421 1421
1480 1471 1457 1451 1454 1455 1455 1449 1447 1448 1446 1446 1445 1444 1440 1440 1439 1438 1437 1436 1435 1434 1433 1432 1432 1431 1431 1430 1429 1428 1427 1426 1425 1424 1423 1423 1422 1422 1421 1421 1420 1419 1419 1418
1478 1470 1457 1445 1452 1453 1455 1446 1442 1443 1443 1443 1444 1441 1436 1436 1436 1435 1434 1434 1432 1431 1430 1429 1429 1428 1428 1427 1426 1425 1424 1423 1422 1421 1421 1420 1419 1419 1418 1418 1417 1417 1417 1416
1473 1466 1451 1448 1451 1453 1451 1440 1440 1439 1439 1440 1440 1438 1436 1434 1433 1433 1432 1431 1429 1428 1427 1426 1426 1426 1425 1424 1423 1422 1421 1420 1419 1418 1418 1417 1416 1416 1416 1415 1415 1415 1414 1414
1467 1463 1451 1446 1449 1448 1441 1439 1438 1437 1437 1437 1435 1434 1433 1432 1431 1430 1429 1427 1426 1425 1424 1424 1423 1423 1422 1421 1420 1419 1418 1417 1416 1415 1415 1414 1413 1413 1413 1413 1412 1412 1412 1411
1454 1446 1441 1442 1441 1440 1439 1438 1436 1435 1434 1434 1432 1431 1430 1429 1427 1426 1426 1424 1423 1422 1421 1421 1420 1420 1419 1418 1417 1416 1415 1414 1413 1412 1411 1411 1410 1410 1410 1410 1410 1409 1409 1409
1449 1440 1439 1439 1438 1437 1436 1434 1433 1432 1432 1431 1429 1428 1427 1426 1424 1423 1422 1421 1420 1419 1418 1417 1417 1417 1416 1415 1414 1413 1412 1411 1410 1409 1408 1408 1408 1407 1407 1407 1407 1407 1406 1406
1443 1437 1436 1433 1432 1432 1432 1431 1430 1429 1428 1427 1426 1425 1424 1422 1421 1420 1419 1418 1417 1416 1415 1415 1414 1413 1413 1412 1411 1410 1409 1408 1407 1407 1406 1405 1405 1405 1405 1404 1405 1405 1404 1404
1432 1431 1432 1429 1428 1428 1427 1427 1426 1425 1424 1423 1423 1421 1420 1419 1418 1417 1416 1415 1414 1413 1413 1412 1411 1411 1410 1409 1408 1407 1406 1405 1405 1404 1403 1403 1402 1402 1402 1402 1402 1402 1402 1402
1427 1427 1427 1425 1425 1425 1424 1423 1423 1422 1421 1420 1419 1418 1417 1416 1415 1414 1413 1412 1411 1411 1410 1409 1408 1408 1407 1406 1405 1404 1404 1403 1402 1402 1401 1400 1400 1399 1399 1400 1400 1399 1399 1399
1423 1424 1422 1421 1421 1421 1420 1420 1419 1418 1417 1416 1415 1414 1413 1413 1412 1411 1410 1409 1409 1408 1407 1407 1406 1405 1404 1404 1403 1402 1401 1401 1400 1399 1399 1398 1397 1397 1397 1397 1396 1396 1396 1396
1418 1418 1418 1417 1417 1416 1416 1416 1415 1414 1413 1412 1411 1411 1410 1409 1408 1408 1407 1406 1406 1405 1404 1404 1403 1402 1402 1401 1400 1400 1399 1398 1398 1397 1396 1396 1395 1395 1395 1394 1394 1394 1393 1394
1412 1412 1413 1413 1412 1412 1412 1412 1411 1410 1410 1409 1408 1407 1407 1406 1405 1405 1404 1403 1403 1402 1401 1401 1400 1400 1399 1399 1398 1397 1397 1396 1396 1395 1394 1394 1393 1393 1392 1392 1392 1392 1391 1391
1408 1407 1408 1408 1408 1408 1408 1408 1408 1407 1407 1406 1405 1405 1404 1403 1402 1401 1401 1400 1400 1399 1399 1398 1398 1398 1397 1396 1395 1395 1394 1394 1394 1393 1393 1392 1392 1391 1391 1390 1390 1390 1390 1390
1403 1403 1404 1404 1404 1404 1404 1404 1404 1404 1404 1403 1402 1402 1401 1400 1399 1399 1398 1397 1396 1396 1396 1395 1395 1395 1394 1394 1393 1393 1392 1392 1391 1391 1391 1390 1390 1390 1389 1389 1388 1388 1388 1388
1398 1399 1399 1400 1401 1401 1401 1401 1401 1401 1401 1400 1399 1398 1398 1397 1397 1396 1395 1394 1393 1392 1392 1393 1392 1392 1392 1392 1391 1391 1391 1390 1390 1390 1389 1389 1389 1388 1388 1387 1387 1387 1387 1386
1394 1395 1396 1396 1397 1397 1397 1397 1397 1397 1397 1397 1396 1395 1395 1394 1394 1393 1392 1391 1391 1390 1390 1390 1390 1389 1389 1389 1389 1389 1388 1388 1388 1388 1388 1387 1387 1387 1386 1386 1386 1386 1385 1385
1392 1392 1393 1393 1393 1394 1394 1394 1394 1394 1394 1394 1393 1392 1392 1392 1391 1390 1389 1388 1388 1388 1387 1387 1387 1387 1387 1387 1387 1386 1386 1386 1386 1386 1386 1386 1385 1385 1385 1385 1384 1384 1384 1384
1389 1389 1390 1390 1390 1391 1391 1391 1391 1391 1391 1390 1390 1390 1389 1389 1388 1387 1387 1386 1386 1385 1385 1385 1384 1385 1384 1384 1384 1384 1384 1384 1384 1384 1384 1384 1383 1383 1383 1383 1383 1383 1383 1382
1386 1387 1387 1388 1388 1388 1388 1388 1388 1388 1388 1387 1387 1387 1386 1386 1385 1384 1384 1384 1383 1383 1382 1382 1382 1382 1382 1382 1382 1382 1381 1381 1381 1381 1381 1381 1382 1381 1381 1381 1381 1381 1381 1381
1384 1384 1385 1385 1385 1385 1385 1385 1385 1385 1384 1384 1384 1384 1383 1383 1382 1382 1382 1381 1381 1380 1380 1380 1380 1379 1379 1379 1379 1379 1379 1379 1379 1379 1379 1379 1379 1379 1379 1379 1379 1379 1379 1379
1381 1382 1382 1382 1382 1382 1382 1382 1381 1381 1381 1381 1381 1381 1380 1380 1379 1379 1378 1378 1378 1377 1377 1377 1377 1377 1376 1376 1377 1377 1377 1377 1378 1378 1378 1377 1377 1377 1377 1378 1378 1378 1378 1378
1379 1379 1379 1379 1379 1379 1379 1379 1378 1378 1378 1378 1377 1377 1377 1377 1376 1376 1375 1375 1374 1374 1374 1374 1374 1374 1374 1374 1374 1374 1374 1375 1375 1375 1375 1375 1375 1375 1375 1375 1375 1375 1375 1375
1375 1375 1375 1375 1376 1376 1376 1375 1375 1375 1375 1374 1374 1374 1374 1373 1373 1372 1372 1371 1371 1371 1371 1371 1371 1371 1371 1372 1372 1372 1372 1372 1373 1373 1373 1373 1373 1373 1373 1373 1373 1373 1373 1373